AirNav   Everest Fuels
 
 969 users online  

0J0 Abbeville Municipal Airport
Abbeville, Alabama, USA

GOING TO ABBEVILLE?


FAA INFORMATION EFFECTIVE 22 APRIL 2021

Location

FAA Identifier: 0J0
Lat/Long: 31-36-00.8000N 085-14-17.9100W
31-36.013333N 085-14.298500W
31.6002222,-85.2383083
(estimated)
Elevation: 463.1 ft. / 141.2 m (surveyed)
Variation: 01W (1985)
From city: 3 miles N of ABBEVILLE, AL
Time zone: UTC -5 (UTC -6 during Standard Time)
Zip code: 36310

Airport Operations

Airport use: Open to the public
Activation date: 08/1959
Control tower: no
ARTCC: JACKSONVILLE CENTER
FSS: ANNISTON FLIGHT SERVICE STATION
NOTAMs facility: ANB (NOTAM-D service available)
Attendance: UNATNDD
Wind indicator: lighted
Segmented circle: no
Lights: ACTVT MIRL RWY 18/36 - CTAF.
Beacon: white-green (lighted land airport)
Operates sunset to sunrise.

Airport Communications

CTAF/UNICOM: 122.8
WX ASOS at DHN (20 nm SW): PHONE 334-983-5999
  • UNICOM IS LCTD AT POLICE STATION.

Nearby radio navigation aids

VOR radial/distance  VOR name  Freq  Var
RRSr026/21.4WIREGRASS VORTAC111.6002E
EUFr193/21.7EUFAULA VORTAC109.2002E
HEYr060/(25.2)HANCHEY VOR110.6003W
OZRr054/31.9CAIRNS VOR/DME111.2003W
EDNr065/(38.6)ENTERPRISE VOR116.6003W

 
NDB name  Hdg/Dist  Freq  Var  ID
HANCHEY061/25.222103WHYE .... -.-- .
LOWE064/29.526903WLOR .-.. --- .-.

Airport Services

Parking: tiedowns
Airframe service: NONE
Powerplant service: NONE

Runway Information

Runway 17/35

Dimensions: 2900 x 80 ft. / 884 x 24 m
Surface: asphalt/concrete/aggregate friction seal coat, in fair condition
Runway edge lights: medium intensity
RUNWAY 17  RUNWAY 35
Latitude: 31-36.249833N31-35.776000N
Longitude: 085-14.336667W085-14.260333W
Elevation: 463.1 ft.462.8 ft.
Traffic pattern: leftleft
Runway heading: 173 magnetic, 172 true353 magnetic, 352 true
Markings: basic, in fair conditionbasic, in fair condition
Touchdown point: yes, no lightsyes, no lights
Obstructions: 36 ft. pline, 1245 ft. from runway, 36 ft. left of centerline, 29:1 slope to clear28 ft. tree, 1390 ft. from runway, 70 ft. left of centerline, 42:1 slope to clear

Airport Ownership and Management from official FAA records

Ownership: Publicly-owned
Owner: CITY OF ABBEVILLE
PO BOX 427
ABBEVILLE, AL 36310
Phone 334-585-6444
Manager: TINA BARNES
PO BOX 427
ABBEVILLE, AL 36310
Phone 334-585-6444

Airport Operational Statistics

Aircraft based on the field: 11
Single engine airplanes: 10
Gliders airplanes: 1
    
Aircraft operations: avg 31/week *
75% military
25% transient general aviation
* for 12-month period ending 17 January 2020

Additional Remarks

FOR CD CTC CAIRNS APCH AT 334-255-8402 OR 334-255-8460, WHEN APCH CLSD CTC JACKSONVILLE ARTCC AT 904-845-1592.

Instrument Procedures

There are no published instrument procedures at 0J0.

Some nearby airports with instrument procedures:

0J6 - Headland Municipal Airport (15 nm S)
KDHN - Dothan Regional Airport (20 nm SW)
11A - Clayton Municipal Airport (21 nm NW)
KBIJ - Early County Airport (21 nm SE)
KEUF - Weedon Field Airport (22 nm N)
 
Loc | Ops | Rwys | IFR | FBO | Links
Com | Nav | Svcs | Stats | Notes
Area around 0J0 (Abbeville Municipal Airport)
 
Road maps at: MapQuest Bing Google
 
Aerial photo
WARNING: Photo may not be current or correct
Aerial photo of 0J0 (Abbeville Municipal Airport)
Photo taken 19-Aug-2020
looking west.

Do you have a better or more recent aerial photo of Abbeville Municipal Airport that you would like to share? If so, please send us your photo.

 
Sectional chart

 
Airport distance calculator
Flying to Abbeville Municipal Airport? Find the distance to fly.

From to 0J0

Sunrise and sunset
Times for 11-May-2021
 Local
(UTC-5)
 Zulu
(UTC)
Morning civil twilight05:2210:22
Sunrise05:4810:48
Sunset19:2600:26
Evening civil twilight19:5300:53

Current date and time
Zulu (UTC)  12-May-2021 02:53:42
Local (UTC-5)  11-May-2021 21:53:42
 
METAR
KDHN 
20nm SW 
120153Z AUTO 18003KT 10SM BKN120 21/19 A3008 RMK AO2 SLP180 T02060194 $
KBIJ 
21nm SE 
120235Z AUTO 00000KT 7SM OVC095 20/18 A3006 RMK AO2
KEUF 
22nm N 
120225Z AUTO 00000KT 10SM SCT021 SCT043 BKN120 22/19 A3007 RMK AO2 T02170194
KHEY 
26nm SW 
120158Z AUTO 09003KT 10SM BKN100 BKN200 20/20 A3005 RMK AO2 SLP176 T02010196
KLOR 
30nm SW 
120158Z AUTO 00000KT 9SM OVC100 19/19 A3005 RMK AO2 RAB12E22 SLP157 P0000 T01940187
KOZR 
31nm SW 
120218Z AUTO 00000KT 10SM BKN100 BKN120 19/19 A3006 RMK AO2 SLP179 53008 $
KSXS 
34nm SW 
120158Z AUTO 00000KT 10SM SCT095 20/19 A3004 RMK AO2 SLP172 T01950190 $
KEDN 
38nm SW 
120235Z AUTO 00000KT 10SM BKN090 19/19 A3006 RMK AO2 T01910191
K17J 
40nm SE 
120235Z AUTO 15005KT 10SM -RA SCT120 20/19 A3005 RMK AO2 T02030195
TAF
KDHN 
20nm SW 
112231Z 1123/1218 26006KT P6SM -SHRA VCTS SCT025 BKN040CB TEMPO 1123/1124 VRB15G25KT 4SM TSRA OVC025CB FM120100 00000KT P6SM SCT016 BKN050 FM120900 02004KT P6SM BKN005 BKN015 FM121300 01003KT P6SM VCSH BKN050
NOTAMs
Click for the latest NOTAMs
NOTAMs are issued by the DoD/FAA and will open in a separate window not controlled by AirNav.

 

 
 

Aviation Businesses, Services, and Facilities

  
 Business Name 
 
 Contact 
 
 Services / Description 
 
Distance
 
Comments
  
Abbeville Municipal Airport no information available

If you are affiliated with Abbeville Municipal Airport and would like to show here your services, contact info, web link, logo, and more, click here
on airport  
   1 read write
 

Would you like to see your business listed on this page?

 If your business provides an interesting product or service to pilots, flight crews, aircraft, or users of the Abbeville Municipal Airport, you should consider listing it here.  To start the listing process, click on the button below
 
Add a business
 

Other Pages about Abbeville Municipal Airport

Update a link
 
Copyright © AirNav, LLC. All rights reserved. Privacy Policy  Contact